User: anonymous   Login
Location: Theydon Bois
(51.6750°N, 0.1050°E)
Time: 23:56:43
(UTC+01:00)
Language:

SL-14 R/B - Orbit

View from above orbital plane
View from above orbital plane
View from above satellite
View from above satellite

Ground track
Ground track

The orbit data is extracted from the following two-line orbital elements,

1 33505U 09003B   18173.55911631 -.00000024 +00000-0 -33725-5 0  9992
2 33505 082.3969 232.6557 0026005 342.6124 017.4212 15.09756158516680
Epoch (UTC): 22 June 2018 13:25:07
Eccentricity: 0.0026005
inclination: 82.3969°
perigee height: 519 km
apogee height: 555 km
right ascension of ascending node: 232.6557°
argument of perigee: 342.6124°
revolutions per day: 15.09756158
mean anomaly at epoch: 17.4212°
orbit number at epoch: 51668

The dashed part of the orbit path shows where the satellite is in the earth's shadow,  

DLR